AirNav   SIMCOM
 
 1295 users online  

05LA Greg's Flying Service Airport
Baskin, Louisiana, USA

GOING TO BASKIN?


FAA INFORMATION EFFECTIVE 14 SEPTEMBER 2017

Location

FAA Identifier: 05LA
Lat/Long: 32-15-55.5150N / 091-41-52.5150W
32-15.925250N / 091-41.875250W
32.2654208 / -91.6979208
(estimated)
Elevation: 77 ft. / 23 m (estimated)
Variation: 03E (1990)
From city: 2 miles E of BASKIN, LA
Time zone: UTC -5 (UTC -6 during Standard Time)
Zip code: 71295

Airport Operations

Airport use: Private use. Permission required prior to landing
Activation date: 11/1992
Control tower: no
ARTCC: FORT WORTH CENTER
FSS: DE RIDDER FLIGHT SERVICE STATION
Attendance: UNATNDD
Segmented circle: no

Nearby radio navigation aids

VOR radial/distance  VOR name  Freq  Var
MLUr128/22.8MONROE VORTAC117.2003E

 
NDB name  Hdg/Dist  Freq  Var  ID
BASTROP159/30.832903EBQP -... --.- .--.
TALLULAH270/34.134402ETKH - -.- ....

Airport Services

Runway Information

Runway 18/36

Dimensions: 2200 x 70 ft. / 671 x 21 m
Surface: turf
RUNWAY 18  RUNWAY 36
Latitude: 32-16.106667N32-15.743833N
Longitude: 091-41.876667W091-41.873833W
Elevation: 77.0 ft.75.0 ft.
Traffic pattern: leftright
Runway heading: 177 magnetic, 180 true357 magnetic, 360 true
Obstructions: 60 ft. trees, 100 ft. from runway60 ft. trees, 100 ft. from runway

Airport Ownership and Management from official FAA records

Ownership: Privately-owned
Owner: GREGORY W. TAYLOR
540 BLOUNT ROAD
WINNSBORO, LA 71295
Phone (318) 439-8017

Additional Remarks

100 FT TREES NORTH END OF RWY.

Instrument Procedures

There are no published instrument procedures at 05LA.

Some nearby airports with instrument procedures:

M79 - John H Hooks Jr Memorial Airport (14 nm N)
KMLU - Monroe Regional Airport (23 nm NW)
KBQP - Morehouse Memorial Airport (31 nm N)
KTVR - Vicksburg Tallulah Regional Airport (34 nm E)
KVKS - Vicksburg Municipal Airport (39 nm E)
 
Loc | Ops | Rwys | IFR | FBO | Links
Com | Nav | Svcs | Stats | Notes


 
Area around 05LA (Greg's Flying Service Airport)
 
Road maps at: MapQuest Bing Google
 
Aerial photo
No photo
 
Sectional chart

 
Airport distance calculator
Flying to Greg's Flying Service Airport? Find the distance to fly.

From to 05LA

Sunrise and sunset
Times for 25-Sep-2017
 Local
(UTC-5)
 Zulu
(UTC)
Morning civil twilight06:3311:33
Sunrise06:5811:58
Sunset18:5923:59
Evening civil twilight19:2400:24

Current date and time
Zulu (UTC)  25-Sep-2017 21:55:38
Local (UTC-5)  25-Sep-2017 16:55:38
 
METAR
KMLU 
23nm NW 
252053Z 07005KT 10SM BKN048 31/19 A2988 RMK AO2 SLP116 T03110189 56023
KBQP 
31nm N 
252135Z AUTO 05003KT 10SM SCT065 OVC085 30/19 A2987 RMK AO2 T02970189
KTVR 
34nm E 
252053Z AUTO 05008KT 10SM CLR 32/18 A2987 RMK AO2 SLP121 T03170178 56025
KVKS 
39nm E 
252135Z AUTO VRB06G11KT 10SM CLR 31/17 A2988 RMK A01
KHEZ 
44nm SE 
252056Z AUTO 03009KT 10SM CLR 31/19 A2987 RMK AO2 SLP116 T03110194 56024
TAF
KMLU 
23nm NW 
251750Z 2518/2618 VRB06KT P6SM SCT035 FM260000 07004KT P6SM SCT060 SCT250 FM260200 VRB03KT P6SM SCT250 FM261100 VRB03KT 4SM BR SCT030 BKN250 TEMPO 2612/2614 6SM BR BKN025 BKN250 FM261400 VRB04KT P6SM BKN030 BKN250 FM261600 09005KT P6SM BKN035 BKN250
NOTAMs
Click for the latest NOTAMs
NOTAMs are issued by the DoD/FAA and will open in a separate window not controlled by AirNav.

 

 
 

Would you like to see your business listed on this page?

 If your business provides an interesting product or service to pilots, flight crews, aircraft, or users of the Greg's Flying Service Airport, you should consider listing it here.  To start the listing process, click on the button below
 
Add a business
 

Other Pages about Greg's Flying Service Airport

Update a link
 
Copyright © AirNav, LLC. All rights reserved. Privacy Policy  Contact